Location: Dackenheim
(49.5215°N, 8.1854°E)
Time: 04:11:58
(UTC+00:00)

JY1SAT - Pass Details

Date: 19 March 2026
Orbit: 466 x 476 km, 97.4° (Epoch: 17 April)

Event Time Altitude Azimuth Distance (km) Brightness Sun altitude
Exits shadow 21:34:01 11° 309° (NW) 1,614 ? -34.4°
Drops below altitude 10° 21:34:12 10° 312° (NW) 1,666 ? -34.4°
Sets 21:36:49 0° 332° (NNW) 2,551 ? -34.6°
